San Jose, Costa Rica

10:24 PM CST on February 22, 2017 (GMT -0600)
Juan Santamaria International

Weather History for MROC - December, 2011

Change the Weather History Date:

Saturday, December 24, 2011

  Actual Average Record
Temperature  
Mean Temperature 74 °F -  
Max Temperature 80 °F 80 °F 87 °F (1997)
Min Temperature 68 °F 63 °F 60 °F (2010)
Cooling Degree Days 9    
Growing Degree Days 24 (Base 50)    
Moisture  
Dew Point 62 °F    
Average Humidity 67    
Maximum Humidity 100    
Minimum Humidity 48    
Precipitation  
Precipitation 0.00 in 0.02 in - ()
Sea Level Pressure  
Sea Level Pressure 29.94 in    
Wind  
Wind Speed 7 mph ()    
Max Wind Speed 21 mph    
Max Gust Speed 28 mph    
Visibility 7.3 miles    
Events      
Averages and records for this station are not official NWS values.
T = Trace of Precipitation, MM = Missing Value Source: Averaged Metar Reports

Daily Weather History Graph

Daily Weather History Graph

Search for Another Location

Airport or City:

Trip Planner

Search our weather history database for the weather conditions in past years. The results will help you decide how hot, cold, wet, or windy it might be!

Date:

Astronomy

Dec. 24, 2011 Rise Set
Actual Time 5:50 AM CST 5:22 PM CST
Civil Twilight 5:27 AM CST 5:45 PM CST
Nautical Twilight 5:00 AM CST 6:11 PM CST
Astronomical Twilight 4:34 AM CST 6:38 PM CST
Moon 5:37 AM CST (12/24) 5:32 PM CST (12/24)
Length of Visible Light 12h 18m
Length of Day
11h 32m
New Moon, 0% of the Moon is Illuminated
Dec 24
New Moon
Dec 24
New
Jan 1
First Quarter
Jan 9
Full
Jan 16
Last Quarter

Hourly Weather History & Observations

Time (CST) Temp. Heat Index Dew Point Humidity Pressure Visibility Wind Dir Wind Speed Gust Speed Precip Events Conditions
12:00 AM 72 °F - 66 °F 77% 29.81 in 12 mi East 6.9 mph - -   Scattered Clouds
12:00 AM 71.6 °F - 66.2 °F 83% 29.99 in 6.2 mi East 6.9 mph - N/A   Scattered Clouds
1:00 AM 69.8 °F - 66.2 °F 88% 29.96 in 6.2 mi Calm Calm - N/A   Scattered Clouds
2:00 AM 71.6 °F - 66.2 °F 83% 29.95 in 6.2 mi East 2.3 mph - N/A   Scattered Clouds
3:00 AM 68 °F - 68 °F 100% 29.79 in 12 mi Calm Calm - -   Scattered Clouds
3:00 AM 68.0 °F - 68.0 °F 100% 29.95 in 6.2 mi Calm Calm - N/A   Scattered Clouds
4:00 AM 68.0 °F - 66.2 °F 94% 29.95 in 6.2 mi SE 2.3 mph - N/A   Mostly Cloudy
5:00 AM 69.8 °F - 68.0 °F 94% 29.96 in 6.2 mi Calm Calm - N/A   Mostly Cloudy
6:00 AM 71.6 °F - 64.4 °F 78% 29.98 in 6.2 mi ESE 8.1 mph - N/A   Mostly Cloudy
7:00 AM 71.6 °F - 64.4 °F 78% 30.00 in 6.2 mi ESE 8.1 mph - N/A   Mostly Cloudy
8:00 AM 73.4 °F - 64.4 °F 73% 30.03 in 6.2 mi SE 6.9 mph - N/A   Scattered Clouds
9:00 AM 75 °F - 59 °F 48% 29.89 in 12 mi ESE 13.8 mph - -   Scattered Clouds
9:00 AM 75.2 °F - 59.0 °F 57% 30.03 in 6.2 mi ESE 13.8 mph 27.6 mph N/A   Scattered Clouds
10:00 AM 77.0 °F - 59.0 °F 54% 30.04 in 6.2 mi East 15.0 mph - N/A   Mostly Cloudy
11:00 AM 80.6 °F 82.3 °F 64.4 °F 58% 30.02 in 6.2 mi East 11.5 mph - N/A   Mostly Cloudy
12:00 PM 79 °F - 63 °F 48% 29.85 in 12 mi East 15.0 mph - -   Scattered Clouds
12:00 PM 78.8 °F - 62.6 °F 57% 30.00 in 6.2 mi East 15.0 mph - N/A   Scattered Clouds
1:00 PM 80.6 °F 81.8 °F 62.6 °F 54% 29.96 in 6.2 mi East 20.7 mph - N/A   Scattered Clouds
2:00 PM 80.6 °F 81.8 °F 62.6 °F 54% 29.94 in 6.2 mi East 18.4 mph - N/A   Partly Cloudy
3:00 PM 78.8 °F - 60.8 °F 54% 29.87 in 6.2 mi East 12.7 mph - N/A   Partly Cloudy
4:00 PM 77.0 °F - 60.8 °F 57% 29.87 in 6.2 mi ENE 12.7 mph - N/A   Partly Cloudy
5:00 PM 75.2 °F - 59.0 °F 57% 29.88 in 6.2 mi East 11.5 mph - N/A   Partly Cloudy
6:00 PM 71.6 °F - 53.6 °F 53% 29.91 in 6.2 mi East 11.5 mph - N/A   Partly Cloudy
7:00 PM 69.8 °F - 57.2 °F 64% 29.93 in 6.2 mi ESE 13.8 mph - N/A   Partly Cloudy
8:00 PM 69.8 °F - 57.2 °F 64% 29.97 in 6.2 mi ESE 12.7 mph - N/A   Unknown
9:00 PM 71 °F - 55 °F 48% 29.83 in 12 mi East 10.4 mph - -  
9:00 PM 71.6 °F - 55.4 °F 57% 29.98 in 6.2 mi East 10.4 mph - N/A   Unknown
10:00 PM 69.8 °F - 57.2 °F 64% 29.98 in - East 11.5 mph - N/A   Clear
11:00 PM 69.8 °F - 55.4 °F 60% 29.97 in - East 11.5 mph - N/A   Clear